EW0139 Weather Reports


time (UTC)temp
F
wind
direction
speed
knots
gust
knots
rain 1hr
in
rain 24hr
in
rain mn
in
humidity
%
barometer
mb
20260510233756 73 104 5.2 10.4 0.00 0.02 0.01 33 1013.9
20260510232739 73 55 7.8 12.2 0.00 0.02 0.01 32 1014.1
20260510231743 73 71 3.5 9.6 0.00 0.02 0.01 33 1014.0
20260510230745 73 119 4.3 9.6 0.00 0.02 0.01 33 1014.2
20260510225745 73 97 4.3 8.7 0.00 0.02 0.01 33 1014.3
20260510224748 73 86 5.2 7.8 0.00 0.02 0.01 33 1014.3
20260510223752 73 86 7.0 9.6 0.00 0.02 0.01 32 1014.5
20260510222754 73 98 3.5 8.7 0.00 0.02 0.01 33 1014.6
20260510221753 73 116 4.3 8.7 0.00 0.02 0.01 31 1014.6
20260510220755 73 107 7.8 8.7 0.00 0.02 0.01 34 1014.9
20260510215759 72 82 3.5 8.7 0.00 0.02 0.01 32 1014.8
20260510214759 72 313 0.0 4.3 0.00 0.02 0.01 33 1015.0
20260510213742 72 113 0.9 10.4 0.00 0.02 0.01 32 1015.2
20260510212803 72 126 5.2 10.4 0.00 0.02 0.01 33 1015.3
20260510211743 72 64 4.3 7.8 0.00 0.02 0.01 33 1015.4
20260510210749 72 151 4.3 7.8 0.00 0.02 0.01 33 1015.4
20260510205753 72 183 6.1 6.1 0.00 0.02 0.01 33 1015.5
20260510204754 70 92 3.5 9.6 0.00 0.02 0.01 33 1015.8
20260510203755 72 88 2.6 15.6 0.00 0.02 0.01 33 1015.9
20260510202741 71 161 5.2 11.3 0.00 0.02 0.01 31 1015.9
20260510201741 71 161 7.0 11.3 0.00 0.02 0.01 32 1016.0
20260510200741 71 118 3.5 11.3 0.00 0.02 0.01 34 1016.0
20260510195744 71 121 3.5 15.6 0.00 0.02 0.01 34 1015.3
20260510194748 71 146 15.6 15.6 0.00 0.02 0.01 35 1015.4
20260510193747 70 88 5.2 15.6 0.00 0.02 0.01 34 1015.7
20260510192808 70 146 7.8 14.8 0.00 0.02 0.01 35 1015.7
20260510191748 70 119 6.1 11.3 0.00 0.02 0.01 37 1016.0
20260510190748 70 110 5.2 11.3 0.00 0.02 0.01 36 1015.9
20260510185753 69 80 4.3 13.0 0.00 0.02 0.01 36 1016.2
20260510184752 69 67 5.2 12.2 0.00 0.02 0.01 38 1016.3
20260510183756 68 107 11.3 13.0 0.00 0.02 0.01 36 1016.5
20260510182817 69 130 11.3 13.0 0.00 0.02 0.01 37 1016.5
20260510181755 68 107 13.0 13.9 0.00 0.02 0.01 37 1016.6
20260510180819 68 113 7.8 15.6 0.00 0.02 0.01 36 1016.8
20260510175758 67 105 8.7 13.9 0.00 0.02 0.01 38 1016.9
20260510174738 67 102 6.1 13.9 0.00 0.02 0.01 36 1017.0
20260510173743 66 123 9.6 13.9 0.00 0.02 0.01 37 1017.2
20260510172747 66 109 5.2 12.2 0.00 0.02 0.01 39 1017.4
20260510171747 66 113 7.8 13.0 0.00 0.02 0.01 40 1017.5
20260510170749 65 111 9.6 13.9 0.00 0.02 0.01 41 1017.7
20260510165748 64 86 10.4 13.9 0.00 0.02 0.01 40 1017.8
20260510164751 64 90 7.0 12.2 0.00 0.02 0.01 43 1017.8
20260510163756 63 80 12.2 13.0 0.00 0.02 0.01 40 1018.0
20260510162815 62 123 8.7 14.8 0.00 0.02 0.01 41 1018.1
20260510161758 62 106 10.4 13.9 0.00 0.02 0.01 40 1018.1
20260510160758 61 71 7.8 15.6 0.00 0.02 0.01 42 1018.2
20260510155741 60 123 9.6 13.9 0.00 0.02 0.01 43 1018.3
20260510154743 60 106 6.1 14.8 0.00 0.02 0.01 44 1018.3
20260510153744 60 111 8.7 12.2 0.00 0.02 0.01 43 1018.4
20260510152744 59 94 7.8 11.3 0.00 0.02 0.01 43 1018.4
20260510151750 58 99 7.8 12.2 0.00 0.02 0.01 44 1018.5
20260510150752 57 86 7.0 10.4 0.00 0.02 0.01 44 1018.7
20260510145752 56 102 6.1 10.4 0.00 0.02 0.01 44 1018.8
20260510144750 56 94 7.8 9.6 0.00 0.02 0.01 43 1018.8
20260510143751 55 90 7.0 9.6 0.00 0.02 0.01 47 1018.8
20260510142754 54 98 7.8 8.7 0.00 0.02 0.01 46 1019.0
20260510141754 54 86 4.3 8.7 0.00 0.02 0.01 48 1019.1
20260510140754 53 78 7.8 11.3 0.00 0.02 0.01 46 1019.0
20260510135754 52 86 7.0 10.4 0.00 0.02 0.01 47 1019.1
20260510134814 51 90 7.8 9.6 0.00 0.02 0.01 50 1019.1
20260510133758 50 96 8.7 12.2 0.00 0.02 0.01 47 1019.1
20260510132756 50 107 5.2 7.8 0.00 0.02 0.01 48 1019.2
20260510131800 48 326 0.0 2.6 0.00 0.02 0.01 51 1019.3
20260510130741 47 326 1.7 4.3 0.00 0.02 0.01 55 1019.3
20260510125747 45 326 1.7 4.3 0.00 0.02 0.01 55 1019.4
20260510124749 44 325 1.7 5.2 0.00 0.02 0.01 57 1019.4
20260510123750 44 329 5.2 5.2 0.00 0.02 0.01 55 1019.3
20260510122752 44 29 0.9 3.5 0.00 0.02 0.01 54 1019.3
20260510121749 44 29 2.6 4.3 0.00 0.02 0.01 54 1019.4
20260510120755 44 55 2.6 3.5 0.00 0.02 0.01 54 1019.4
20260510115757 44 56 0.0 3.5 0.00 0.02 0.01 56 1019.4
20260510114756 45 57 1.7 3.5 0.00 0.02 0.01 54 1019.3
20260510113739 45 57 3.5 4.3 0.00 0.02 0.01 53 1019.3
20260510112747 44 94 0.9 4.3 0.00 0.02 0.01 55 1019.3
20260510111748 43 261 0.9 3.5 0.00 0.02 0.01 60 1019.5
20260510110750 43 1 3.5 4.3 0.00 0.02 0.01 61 1019.4
20260510105750 43 36 1.7 3.5 0.00 0.02 0.01 60 1019.2
20260510104810 43 36 0.9 3.5 0.00 0.02 0.01 59 1019.0
20260510103754 43 36 0.9 2.6 0.00 0.02 0.01 59 1019.0
20260510102754 43 36 1.7 2.6 0.00 0.02 0.01 59 1019.1
20260510101755 44 36 1.7 3.5 0.00 0.02 0.01 59 1019.3
20260510100754 44 36 3.5 3.5 0.00 0.02 0.01 57 1019.2
20260510095740 45 36 0.0 1.7 0.00 0.02 0.01 56 1019.3
20260510094740 46 36 0.9 3.5 0.00 0.02 0.01 57 1019.2
20260510093741 46 32 0.0 3.5 0.00 0.02 0.01 54 1019.1
20260510092745 47 74 0.0 2.6 0.00 0.02 0.01 54 1019.1
20260510091810 48 73 0.0 3.5 0.00 0.02 0.01 53 1019.1
20260510090749 48 74 0.0 6.1 0.00 0.02 0.01 53 1019.1
20260510085751 48 53 4.3 4.3 0.00 0.02 0.01 55 1019.0
20260510084750 48 65 0.0 0.0 0.00 0.02 0.01 58 1019.0
20260510083753 48 65 0.0 3.5 0.00 0.02 0.01 61 1019.0
20260510082817 48 65 1.7 2.6 0.00 0.02 0.01 62 1019.2
20260510081755 49 64 0.9 2.6 0.00 0.02 0.01 60 1019.1
20260510080757 50 64 0.9 1.7 0.00 0.02 0.01 56 1019.2
20260510075756 50 65 0.0 6.1 0.00 0.02 0.01 56 1019.0
20260510074742 50 63 3.5 5.2 0.00 0.02 0.01 54 1018.9
20260510073742 50 42 1.7 7.8 0.00 0.02 0.01 54 1018.9
20260510072802 50 56 2.6 8.7 0.00 0.02 0.01 53 1018.9
20260510071745 50 61 0.9 6.1 0.00 0.02 0.01 55 1018.8
20260510070746 50 46 5.2 5.2 0.00 0.02 0.01 54 1019.0
20260510065808 50 56 1.7 7.8 0.01 0.02 0.01 52 1018.9
20260510064752 50 42 1.7 5.2 0.01 0.02 0.01 55 1018.8
20260510063754 50 34 2.6 7.8 0.02 0.02 0.01 55 1018.6
20260510062755 50 30 3.5 6.1 0.02 0.02 0.01 56 1018.8
20260510061758 50 41 5.2 8.7 0.02 0.02 0.01 56 1018.6
20260510060743 51 28 5.2 11.3 0.02 0.02 0.01 54 1018.5
20260510055744 51 32 8.7 8.7 0.01 0.01 0.01 55 1018.5
20260510054747 51 31 4.3 7.8 0.01 0.01 0.01 58 1018.6
20260510053751 52 30 1.7 5.2 0.00 0.00 0.00 52 1018.8
20260510052757 54 13 2.6 4.3 0.00 0.00 0.00 48 1018.6
20260510051819 55 354 3.5 5.2 0.00 0.00 0.00 45 1018.6
20260510050757 55 355 4.3 6.1 0.00 0.00 0.00 42 1018.7
20260510045758 55 358 2.6 3.5 0.00 0.00 0.00 43 1018.5
20260510044742 55 355 1.7 2.6 0.00 0.00 0.00 44 1018.3
20260510043748 56 355 1.7 2.6 0.00 0.00 0.00 46 1018.2
20260510042749 56 355 0.0 2.6 0.00 0.00 0.00 46 1018.1
20260510041750 57 355 1.7 5.2 0.00 0.00 0.00 44 1018.0
20260510040751 57 346 3.5 7.8 0.00 0.00 0.00 43 1018.0
20260510035812 57 323 0.9 1.7 0.00 0.00 0.00 46 1017.8
20260510034759 57 323 0.9 2.6 0.00 0.00 0.00 45 1017.7
20260510033759 56 323 0.9 3.5 0.00 0.00 0.00 46 1017.6
20260510032800 56 323 2.6 3.5 0.00 0.00 0.00 51 1017.3
20260510031759 56 323 2.6 4.3 0.00 0.00 0.00 52 1017.2
20260510030743 56 321 3.5 4.3 0.00 0.00 0.00 48 1017.0
20260510025743 55 315 2.6 2.6 0.00 0.00 0.00 48 1016.8
20260510024746 55 315 2.6 2.6 0.00 0.00 0.00 48 1016.5
20260510023750 56 315 0.9 2.6 0.00 0.00 0.00 46 1016.3
20260510022753 57 315 0.9 2.6 0.00 0.00 0.00 44 1016.3
20260510021754 59 315 1.7 2.6 0.00 0.00 0.00 43 1016.0
20260510020755 60 315 0.9 3.5 0.00 0.00 0.00 40 1016.0
20260510015755 61 315 2.6 4.3 0.00 0.00 0.00 40 1016.0
20260510014817 62 312 3.5 5.2 0.00 0.00 0.00 39 1015.9
20260510013742 63 317 4.3 7.0 0.00 0.00 0.00 37 1015.8
20260510012803 64 321 5.2 9.6 0.00 0.00 0.00 37 1015.7
20260510011741 64 292 6.1 9.6 0.00 0.00 0.00 36 1015.7
20260510010804 64 314 6.1 13.0 0.00 0.00 0.00 35 1015.6
20260510005748 64 298 11.3 11.3 0.00 0.00 0.00 35 1015.5
20260510004751 65 331 6.1 9.6 0.00 0.00 0.00 36 1015.5
20260510003753 65 344 4.3 10.4 0.00 0.00 0.00 35 1015.6
20260510002754 65 304 6.1 14.8 0.00 0.00 0.00 34 1015.5
20260510001752 65 258 6.1 10.4 0.00 0.00 0.00 36 1015.5
20260510000756 65 298 7.8 13.0 0.00 0.00 0.00 34 1015.6
20260509235816 64 301 13.0 16.5 0.00 0.00 0.00 35 1015.6
20260509234755 64 293 11.3 17.4 0.00 0.00 0.00 35 1015.5